Peyton, CO

8:19 PM MST on February 07, 2016 (GMT -0700)
Meadow Lake

Weather History for KFLY - September, 2012

Change the Weather History Date:

Tuesday, September 18, 2012

  Actual Average (KCOS) Record (KCOS)
Temperature  
Mean Temperature 56 °F 60 °F  
Max Temperature 75 °F 74 °F 89 °F (1954)
Min Temperature 39 °F 46 °F 28 °F (1971)
Degree Days  
Heating Degree Days 8 6  
Month to date heating degree days 63  
Since 1 July heating degree days 94  
Cooling Degree Days 0 1  
Month to date cooling degree days 31  
Year to date cooling degree days 449  
Growing Degree Days 6 (Base 50)    
Moisture  
Dew Point 32 °F    
Average Humidity 46    
Maximum Humidity 85    
Minimum Humidity 16    
Precipitation  
Precipitation 0.00 in 0.04 in 0.86 in (1965)
Month to date precipitation 0.85  
Year to date precipitation 14.64  
Snow  
Snow 0.00 in 0.00 in 0.70 in (1971)
Month to date snowfall 0.0  
Since 1 July snowfall 0.0  
Since 1 September snowfall 0.0  
Snow Depth -    
Sea Level Pressure  
Sea Level Pressure 30.27 in    
Wind  
Wind Speed 6 mph (West)    
Max Wind Speed 12 mph    
Max Gust Speed 21 mph    
Visibility 10 miles    
Events      
T = Trace of Precipitation, MM = Missing Value Source: NWS Daily Summary

Daily Weather History Graph

Daily Weather History Graph

Search for Another Location

Airport or City:

Trip Planner

Search our weather history database for the weather conditions in past years. The results will help you decide how hot, cold, wet, or windy it might be!

Date:

Astronomy

Sep. 18, 2012 Rise Set
Actual Time 6:42 AM MDT 7:00 PM MDT
Civil Twilight 6:16 AM MDT 7:27 PM MDT
Nautical Twilight 5:44 AM MDT 7:58 PM MDT
Astronomical Twilight 5:12 AM MDT 8:30 PM MDT
Moon 9:43 AM MDT (9/18) 8:28 PM MDT (9/18)
Length of Visible Light 13h 11m
Length of Day
12h 18m
Waxing Crescent, 9% of the Moon is Illuminated
Sep 18
Waxing Crescent
Sep 22
First Quarter
Sep 29
Full
Oct 8
Last Quarter
Oct 15
New

Hourly Weather History & Observations

Time (MDT) Temp. Windchill Dew Point Humidity Pressure Visibility Wind Dir Wind Speed Gust Speed Precip Events Conditions
12:12 AM 41.9 °F 39.0 °F 37.0 °F 83% 30.30 in 10.0 mi West 4.6 mph - N/A   Clear
12:32 AM 40.8 °F 36.2 °F 36.7 °F 85% 30.30 in 10.0 mi West 6.9 mph - N/A   Clear
12:52 AM 41.4 °F 36.8 °F 36.9 °F 84% 30.30 in 10.0 mi West 6.9 mph - N/A   Clear
1:32 AM 40.8 °F 35.6 °F 36.1 °F 83% 30.29 in 10.0 mi WSW 8.1 mph - N/A   Clear
1:52 AM 41.5 °F 37.1 °F 36.5 °F 82% 30.29 in 10.0 mi WSW 6.9 mph - N/A   Clear
2:12 AM 41.4 °F 36.8 °F 36.1 °F 82% 30.28 in 10.0 mi WSW 6.9 mph - N/A   Clear
2:32 AM 41.9 °F 36.9 °F 36.5 °F 81% 30.27 in 10.0 mi West 8.1 mph - N/A   Clear
2:52 AM 41.9 °F 37.5 °F 36.1 °F 80% 30.27 in 10.0 mi West 6.9 mph - N/A   Clear
3:12 AM 41.0 °F 36.4 °F 35.8 °F 82% 30.27 in 10.0 mi West 6.9 mph - N/A   Clear
3:32 AM 41.0 °F 35.8 °F 35.8 °F 82% 30.26 in 10.0 mi West 8.1 mph - N/A   Clear
3:52 AM 41.2 °F 35.5 °F 35.6 °F 81% 30.26 in 10.0 mi West 9.2 mph - N/A   Clear
4:12 AM 41.2 °F 36.0 °F 35.6 °F 81% 30.26 in 10.0 mi West 8.1 mph - N/A   Clear
4:32 AM 41.0 °F 35.8 °F 35.1 °F 79% 30.26 in 10.0 mi West 8.1 mph - N/A   Clear
4:52 AM 39.0 °F 35.7 °F 34.3 °F 83% 30.26 in 10.0 mi WNW 4.6 mph - N/A   Clear
5:12 AM 40.3 °F 37.1 °F 34.7 °F 80% 30.26 in 10.0 mi West 4.6 mph - N/A   Clear
5:32 AM 40.5 °F 34.1 °F 34.9 °F 80% 30.26 in 10.0 mi WNW 10.4 mph - N/A   Clear
5:52 AM 39.4 °F 35.2 °F 34.7 °F 83% 30.26 in 10.0 mi WNW 5.8 mph - N/A   Clear
6:12 AM 39.4 °F 32.3 °F 34.7 °F 83% 30.26 in 10.0 mi WNW 11.5 mph - N/A   Clear
6:32 AM 40.5 °F 38.4 °F 34.0 °F 78% 30.26 in 10.0 mi NW 3.5 mph - N/A   Clear
6:52 AM 43.0 °F 41.3 °F 33.3 °F 69% 30.27 in 10.0 mi NNW 3.5 mph - N/A   Clear
7:12 AM 45.9 °F 41.7 °F 33.6 °F 62% 30.28 in 10.0 mi NW 8.1 mph - N/A   Clear
7:52 AM 53.4 °F - 35.4 °F 51% 30.29 in 10.0 mi NNW 6.9 mph - N/A   Clear
8:12 AM 56.1 °F - 36.7 °F 48% 30.30 in 10.0 mi NNW 6.9 mph - N/A   Clear
8:32 AM 58.3 °F - 38.1 °F 47% 30.30 in 10.0 mi NW 5.8 mph - N/A   Clear
8:52 AM 61.2 °F - 35.1 °F 38% 30.31 in 10.0 mi NW 6.9 mph - N/A   Clear
9:12 AM 62.8 °F - 32.0 °F 32% 30.31 in 10.0 mi NW 6.9 mph - N/A   Clear
9:32 AM 63.9 °F - 32.0 °F 30% 30.31 in 10.0 mi ENE 4.6 mph - N/A   Clear
9:52 AM 64.6 °F - 31.1 °F 29% 30.31 in 10.0 mi NE 4.6 mph - N/A   Clear
10:12 AM 65.3 °F - 29.1 °F 26% 30.31 in 10.0 mi North 6.9 mph - N/A   Clear
10:32 AM 65.5 °F - 29.1 °F 26% 30.30 in 10.0 mi Calm Calm - N/A   Clear
10:52 AM 67.5 °F - 29.1 °F 24% 30.30 in 10.0 mi NNW 5.8 mph - N/A   Clear
11:12 AM 68.4 °F - 28.9 °F 23% 30.30 in 10.0 mi WNW 4.6 mph - N/A   Clear
11:32 AM 70.0 °F - 26.6 °F 20% 30.30 in 10.0 mi NNW 3.5 mph - N/A   Clear
11:52 AM 70.7 °F - 25.9 °F 19% 30.30 in 10.0 mi North 6.9 mph 17.3 mph N/A   Clear
12:12 PM 71.4 °F - 25.2 °F 18% 30.29 in 10.0 mi NNE 6.9 mph - N/A   Clear
12:32 PM 71.2 °F - 23.4 °F 17% 30.28 in 10.0 mi NNW 4.6 mph - N/A   Clear
12:52 PM 71.8 °F - 23.7 °F 17% 30.28 in 10.0 mi NNW 3.5 mph - N/A   Clear
1:12 PM 73.0 °F - 23.5 °F 16% 30.28 in 10.0 mi ESE 3.5 mph - N/A   Clear
1:32 PM 73.6 °F - 24.3 °F 16% 30.27 in 10.0 mi SSE 3.5 mph - N/A   Clear
1:52 PM 74.7 °F - 25.0 °F 16% 30.26 in 10.0 mi East 4.6 mph - N/A   Clear
2:12 PM 73.8 °F - 24.8 °F 16% 30.26 in 10.0 mi East 5.8 mph - N/A   Clear
2:32 PM 74.8 °F - 26.2 °F 16% 30.25 in 10.0 mi SE 11.5 mph 19.6 mph N/A   Clear
2:52 PM 74.1 °F - 28.2 °F 18% 30.25 in 10.0 mi SSE 10.4 mph 20.7 mph N/A   Clear
3:12 PM 73.4 °F - 27.7 °F 18% 30.24 in 10.0 mi SSE 9.2 mph - N/A   Clear
3:52 PM 73.8 °F - 27.9 °F 18% 30.24 in 10.0 mi SSW 5.8 mph - N/A   Clear
4:12 PM 73.4 °F - 27.9 °F 18% 30.23 in 10.0 mi SSE 10.4 mph - N/A   Clear
4:32 PM 73.0 °F - 28.4 °F 19% 30.23 in 10.0 mi South 6.9 mph - N/A   Clear
4:52 PM 72.3 °F - 28.6 °F 20% 30.23 in 10.0 mi SSE 8.1 mph - N/A   Clear
5:12 PM 72.0 °F - 28.4 °F 20% 30.23 in 10.0 mi SSW 8.1 mph - N/A   Clear
5:32 PM 71.2 °F - 29.1 °F 21% 30.23 in 10.0 mi South 8.1 mph - N/A   Clear
5:52 PM 70.0 °F - 29.3 °F 22% 30.23 in 10.0 mi South 6.9 mph - N/A   Clear
6:12 PM 68.5 °F - 30.0 °F 24% 30.24 in 10.0 mi South 6.9 mph - N/A   Clear
6:32 PM 65.7 °F - 31.6 °F 28% 30.24 in 10.0 mi South 5.8 mph - N/A   Clear
6:52 PM 62.6 °F - 32.2 °F 32% 30.24 in 10.0 mi SSW 4.6 mph - N/A   Clear
7:12 PM 60.4 °F - 32.0 °F 34% 30.23 in 10.0 mi SSW 4.6 mph - N/A   Clear
7:32 PM 60.4 °F - 32.0 °F 34% 30.24 in 10.0 mi SW 5.8 mph - N/A   Clear
7:52 PM 59.4 °F - 32.0 °F 36% 30.24 in 10.0 mi SW 4.6 mph - N/A   Clear
8:12 PM 58.1 °F - 31.6 °F 37% 30.25 in 10.0 mi SW 4.6 mph - N/A   Clear
8:32 PM 57.6 °F - 32.2 °F 38% 30.25 in 10.0 mi SW 5.8 mph - N/A   Clear
8:52 PM 57.0 °F - 32.0 °F 39% 30.26 in 10.0 mi WSW 4.6 mph - N/A   Clear
9:12 PM 54.9 °F - 33.1 °F 44% 30.26 in 10.0 mi WSW 5.8 mph - N/A   Clear
9:52 PM 52.5 °F - 33.8 °F 49% 30.26 in 10.0 mi WSW 5.8 mph - N/A   Clear
10:12 PM 52.0 °F - 34.2 °F 51% 30.26 in 10.0 mi West 4.6 mph - N/A   Clear
10:32 PM 52.0 °F - 33.4 °F 49% 30.26 in 10.0 mi West 4.6 mph - N/A   Clear
10:52 PM 51.8 °F - 33.6 °F 50% 30.26 in 10.0 mi West 4.6 mph - N/A   Clear
11:12 PM 49.3 °F - 34.2 °F 56% 30.24 in 10.0 mi WNW 3.5 mph - N/A   Clear
11:52 PM 48.7 °F - 33.4 °F 56% 30.24 in 10.0 mi WNW 4.6 mph - N/A   Clear